User: anonymous   Login
Location: Ahausen
(50.4985°N, 8.2722°E)
Time: 11:23:57
(UTC+00:00)
Language:

Cosmos 192 - Orbit

View from above orbital plane
View from above orbital plane
View from above satellite
View from above satellite

Ground track
Ground track

The orbit data is extracted from the following two-line orbital elements,

1 03047U 67116A   22333.67949037  .00000208  00000-0  53901-4 0  9995
2 03047  74.0117 318.4195 0006916  81.8943 278.3005 14.55873077909978
Epoch (UTC): 29 November 2022 16:18:27
Eccentricity: 0.0006916
inclination: 74.0117°
perigee height: 701 km
apogee height: 711 km
right ascension of ascending node: 318.4195°
argument of perigee: 81.8943°
revolutions per day: 14.55873077
mean anomaly at epoch: 278.3005°
orbit number at epoch: 90997

The dashed part of the orbit path shows where the satellite is in the earth's shadow,  

DLR